Regional Weather Roundup
Issued by NWS

Home | Current Version | Previous Version | Graphics & Text | Print | Product List | Glossary On
Versions: 1 2 3 4 5 6 7 8 9 10 11 12 13 14 15 16 17 18 19 20 21 22 23 24 25 26 27 28 29 30 31 32 33 34 35 36 37 38 39 40 41 42 43 44 45 46 47 48 49 50
000
ASUS43 KMPX 191701
RWRMN
WEATHER ROUNDUP FOR MINNESOTA
NATIONAL WEATHER SERVICE TWIN CITIES/CHANHASSEN MN
1100 AM CST SUN NOV 19 2017


NOTE: "FAIR" INDICATES FEW OR NO CLOUDS BELOW 12,000 FEET WITH NO
SIGNIFICANT WEATHER AND/OR OBSTRUCTIONS TO VISIBILITY. N/A MEANS
CURRENT SKY AND/OR WEATHER CONDITIONS ARE NOT AVAILABLE.

MNZ060>063-068>070-191800-
   Twin Cities Metro

CITY           SKY/WX    TMP DP  RH WIND       PRES   REMARKS
TWIN CITIES    PTSUNNY   28  15  58 SW7       30.05F WCI  21
ST PAUL        SUNNY     27  13  55 SW7       30.07F WCI  19
CRYSTAL        PTSUNNY   27  12  53 SW7       30.03F WCI  19
BLAINE         MOSUNNY   28  16  59 SW5       30.03F WCI  23
LAKEVILLE      SUNNY     27  18  69 SW3       30.04F
EDEN PRAIRIE   SUNNY     29  15  56 S7        30.03F WCI  22
SOUTH ST PAUL  SUNNY     28  14  54 CALM      30.05F
LAKE ELMO      FAIR      28  14  54 SW8       30.04F WCI  20
$$
MNZ001>005-007-008-013>017-022>024-027-028-191800-
   Northwest Minnesota

CITY           SKY/WX    TMP DP  RH WIND       PRES   REMARKS
BEMIDJI        CLOUDY    19  12  73 S5        29.88F WCI  13
HALLOCK        CLOUDY    21  16  79 SE7       29.86S WCI  13
ROSEAU         CLOUDY    19  12  73 S5        29.87F WCI  13
WARROAD        CLOUDY    18  12  79 SW6       29.88S WCI   9
CROOKSTON      SUNNY     25  18  74 S7        29.89F WCI  17
FOSSTON        CLOUDY    25  16  68 S8        29.87F WCI  16
DETROIT LAKES  SUNNY     30  21  69 S6        29.90F WCI  24
MOORHEAD       SUNNY     28  19  69 CALM      29.91F
PARK RAPIDS    MOSUNNY   27  18  69 S8        29.89F WCI  19
MAHNOMEN       CLOUDY    25  19  76 S14       29.87F WCI  14
$$
MNZ006-009>011-018-025>026-191800-
   North Central Minnesota

CITY           SKY/WX    TMP DP  RH WIND       PRES   REMARKS
BAUDETTE       CLOUDY    15  10  80 S5        29.87F WCI   8
FLAG ISLAND    CLOUDY    14   7  73 CALM      29.86F
INTL FALLS     CLOUDY    14   6  70 SW5       29.89F WCI   6
WASKISH        CLOUDY    19  12  73 SW7       29.89F WCI  10
BIG FORK       CLOUDY    18  10  73 SW5       29.90F WCI  11
LONGVILLE      CLOUDY    21  12  68 S6        29.93F WCI  14
GRAND RAPIDS   FLURRIES  19  11  70 SW6       29.94F WCI  11
CRANE LAKE     CLOUDY    12   7  79 SW3       29.93S
ORR            CLOUDY    12   7  79 SW6       29.88F WCI   3
COOK           CLOUDY    16   9  73 CALM      29.90F
WALKER         CLOUDY    21  13  70 S6        29.90F WCI  13
$$
MNZ012-019>021-037-191800-
   Northeast Minnesota

CITY           SKY/WX    TMP DP  RH WIND       PRES   REMARKS
DULUTH         CLOUDY    17   9  70 W13       29.93S WCI   4
ELY            PTSUNNY   12   5  73 SW6       29.89S WCI   3
HIBBING        CLOUDY    16   7  67 SW6       29.91F WCI   7
EVELETH        CLOUDY    14   7  73 SW10      29.93S WCI   1
DULUTH HARBOR  CLOUDY    21  12  68 SW13      29.99F WCI   9
TWO HARBORS    CLOUDY    21  10  63 W6        29.92S WCI  14
GRAND MARAIS     N/A     23  13  65 SW10      29.91F WCI  12
G MARAIS ARPRT SUNNY     16   3  57 W7G17     29.81S WCI   6
$$
MNZ029>031-032-039>041-046>048-054>057-064-191800-
   West Central Minnesota

CITY           SKY/WX    TMP DP  RH WIND       PRES   REMARKS
FERGUS FALLS   SUNNY     30  21  69 S7        29.96F WCI  23
WHEATON        SUNNY     37  25  60 SW8       29.95F
MORRIS         SUNNY     36  25  64 SW6       29.94F
ALEXANDRIA     PTSUNNY   30  21  69 SW8       29.94F WCI  22
ELBOW LAKE     FAIR      31  23  72 S8        29.94F HAZE    WCI  23
WADENA         SUNNY     27  19  74 S3        29.91F
GLENWOOD       SUNNY     30  21  69 SW12      29.95F WCI  21
APPLETON       SUNNY     37  25  60 SW7       29.96F
BENSON         SUNNY     34  21  60 W8        29.98F WCI  27
ORTONVILLE     SUNNY     39  27  60 MISG      29.95F
MADISON        SUNNY     45  27  49 W8        29.97F
WILLMAR        FAIR      36  25  64 SW12      29.99F
$$
MNZ033>034-036-042>043-049>051-058-059-191800-
   Central Minnesota

CITY           SKY/WX    TMP DP  RH WIND       PRES   REMARKS
ST CLOUD       PTSUNNY   27  17  66 S9        29.99F WCI  18
SAUK CENTRE    FAIR      28  20  71 S7        29.96F WCI  21
PAYNESVILLE    SUNNY     32  24  72 S8        29.98F WCI  25
AITKIN         CLOUDY    21  12  68 S5        29.94F WCI  15
PINE RIVER     CLOUDY    19  12  73 S5        29.96F WCI  13
BRAINERD       CLOUDY    25  14  63 SW8       29.95F WCI  16
STAPLES        MOSUNNY   27  18  69 S7        29.93F WCI  19
LONG PRAIRIE   FAIR      27  19  74 S7        29.95F WCI  19
LITTLE FALLS   MOSUNNY   28  12  50 S7        29.97F WCI  21
LITCHFIELD     SUNNY     34  23  64 W5        30.00F WCI  30
BUFFALO        SUNNY     29  17  61 S6        30.03F WCI  22
MAPLE LAKE     MOSUNNY   31  20  64 S7        30.02F WCI  24
HUTCHINSON     CLOUDY    33  22  65 SW5       30.02F WCI  28
$$
MNZ037-044-045-052-053-191800-
   East Central Minnesota

CITY           SKY/WX    TMP DP  RH WIND       PRES   REMARKS
PRINCETON      PTSUNNY   30  18  59 S7        30.00F WCI  23
MORA           CLOUDY    25  14  63 SW7       30.01F WCI  17
CAMBRIDGE      MOSUNNY   28  16  59 S6        30.01F WCI  22
RUSH CITY      MOSUNNY   25  13  60 SW6       30.01F WCI  18
MOOSE LAKE     CLOUDY    21  14  73 SW5       29.97S WCI  15
HINCKLEY       FAIR      25  14  63 SW7       29.99F WCI  17
CLOQUET        PTSUNNY   19   9  63 SW8       29.95S WCI   9
MCGREGOR       CLOUDY    23  12  63 SW6       29.96F WCI  16
$$
MNZ071>073-080-081-089-090-097-098-191800-
   Southwest Minnesota

CITY           SKY/WX    TMP DP  RH WIND       PRES   REMARKS
MONTEVIDEO     SUNNY     37  27  65 W9        29.99S
GRANITE FALLS  SUNNY     38  26  62 SW12      30.01F
CANBY          SUNNY     43  26  51 SW20G25   29.98F
MARSHALL       SUNNY     41  24  51 W20G29    29.98F
REDWOOD FALLS  SUNNY     39  23  52 SW14      30.00F
OLIVIA         SUNNY     34  25  69 SW10      29.99F WCI  26
PIPESTONE      SUNNY     36  25  64 W8        30.01F
WINDOM         SUNNY     37  19  48 SW12      30.03F
WORTHINGTON    SUNNY     37  23  56 SW17G23   30.04F
JACKSON        SUNNY     37  21  52 SW12      30.04F
SLAYTON        SUNNY     37  25  60 SW16G23   30.02F
$$
MNZ065>067-074>077-082>085-091>093-191800-
   South Central Minnesota

CITY           SKY/WX    TMP DP  RH WIND       PRES   REMARKS
MANKATO        SUNNY     30  20  66 SW7       30.05F WCI  23
NEW ULM        SUNNY     36  19  51 CALM      30.02F
ST JAMES       MOSUNNY   37  21  52 SW14      30.04F
FAIRMONT       MOSUNNY   35  21  56 W15       30.06F WCI  25
GLENCOE        SUNNY     32  22  66 SW7       30.02F WCI  26
FARIBAULT      MOSUNNY   28  18  64 S9        30.05F WCI  20
OWATONNA       MOSUNNY   28  19  69 SW9       30.05F WCI  20
WASECA         MOSUNNY   32  21  64 S7        30.07F WCI  26
ALBERT LEA     CLOUDY    28  16  59 SW6       30.06F WCI  22
$$
MNZ078>079-086>088-094>096-191800-
   Southeast Minnesota

CITY           SKY/WX    TMP DP  RH WIND       PRES   REMARKS
ROCHESTER      CLOUDY    27  17  66 SW8       30.06F WCI  19
RED WING       MOSUNNY   28   7  40 W7        30.06F WCI  21
STANTON        MOSUNNY   28  17  63 S6        30.04F WCI  21
DODGE CENTER   CLOUDY    27  16  63 SW7       30.04F WCI  19
WINONA           N/A     30  14  51 W5        30.09F WCI  25
AUSTIN         CLOUDY    27  18  69 SW9       30.06F WCI  17
PRESTON        CLOUDY    26  14  58 W9        30.07F WCI  17
$$
ABBREVIATIONS USED IN REMARKS
   TC - TEMPERATURES IN CELSIUS
  WCI - WIND CHILL INDEX
   HX - HEAT INDEX
  VSB - VISIBILITY
$$




USA.gov is the U.S. government's official web portal to all federal, state and local government web resources and services.